Powrót do katalogu

BREEZE-M R/B

AktywnyHEO
NORAD 38343·ROCKET BODY·🇷🇺 Russia

Wystrzelony May 17, 2012 z Baikonur Cosmodrome

Loading…

Następne Przeloty (najbliższe 24 godziny)

TLE

ŚwieżeSource: Space-Track

Epoka: Sep 14, 2026, 03:27 UTC

1 38343U 12026B   26257.14382555 -.00000123  00000-0  00000-0 0  9994
2 38343  10.1282 129.0304 4130005  60.2460 334.6296  1.76702809 92146

Śledź BREEZE-M R/B w czasie rzeczywistym z AllMySat

Download on the App Store